| time (UTC) | temp F | wind direction | speed knots | gust knots | rain 1hr in | rain 24hr in | rain mn in | humidity % | barometer mb |
| 20260507203049 | 65 | 316 | 0.9 | 0.9 | 0.00 | 0.01 | 0.01 | 61 | 1007.4 |
| 20260507202544 | 66 | 205 | 5.2 | 6.1 | 0.00 | 0.01 | 0.01 | 62 | 1007.6 |
| 20260507202041 | 65 | 182 | 0.9 | 1.7 | 0.00 | 0.01 | 0.01 | 58 | 1007.6 |
| 20260507201536 | 64 | 175 | 0.9 | 1.7 | 0.00 | 0.01 | 0.01 | 60 | 1007.5 |
| 20260507201033 | 65 | 289 | 0.9 | 0.9 | 0.00 | 0.01 | 0.01 | 59 | 1007.7 |
| 20260507200528 | 66 | 184 | 1.7 | 1.7 | 0.00 | 0.01 | 0.01 | 59 | 1007.7 |
| 20260507200025 | 64 | 180 | 4.3 | 6.1 | 0.00 | 0.01 | 0.01 | 61 | 1007.9 |
| 20260507195522 | 64 | 135 | 2.6 | 2.6 | 0.00 | 0.01 | 0.01 | 58 | 1008.0 |
| 20260507195020 | 66 | 192 | 5.2 | 7.0 | 0.00 | 0.01 | 0.01 | 57 | 1007.9 |
| 20260507194516 | 65 | 179 | 0.9 | 1.7 | 0.00 | 0.01 | 0.01 | 60 | 1008.0 |
| 20260507194012 | 65 | 153 | 2.6 | 2.6 | 0.00 | 0.01 | 0.01 | 56 | 1007.7 |
| 20260507193509 | 66 | 206 | 3.5 | 4.3 | 0.00 | 0.01 | 0.01 | 59 | 1008.1 |
| 20260507193006 | 64 | 153 | 3.5 | 4.3 | 0.00 | 0.01 | 0.01 | 57 | 1008.4 |
| 20260507192502 | 63 | 215 | 2.6 | 2.6 | 0.00 | 0.01 | 0.01 | 59 | 1008.6 |
| 20260507191959 | 63 | 103 | 1.7 | 2.6 | 0.00 | 0.01 | 0.01 | 61 | 1008.7 |
| 20260507191454 | 64 | 123 | 0.0 | 0.0 | 0.00 | 0.01 | 0.01 | 60 | 1008.5 |
| 20260507190952 | 63 | 121 | 0.9 | 0.9 | 0.00 | 0.01 | 0.01 | 61 | 1008.7 |
| 20260507190449 | 63 | 167 | 3.5 | 5.2 | 0.00 | 0.01 | 0.01 | 60 | 1008.5 |
| 20260507185948 | 63 | 135 | 2.6 | 4.3 | 0.00 | 0.01 | 0.01 | 60 | 1008.7 |
| 20260507185445 | 63 | 162 | 0.9 | 1.7 | 0.00 | 0.01 | 0.01 | 61 | 1008.9 |
| 20260507184941 | 62 | 135 | 0.0 | 0.9 | 0.00 | 0.01 | 0.01 | 63 | 1008.7 |
| 20260507184439 | 63 | 166 | 4.3 | 6.1 | 0.00 | 0.01 | 0.01 | 60 | 1008.8 |
| 20260507183937 | 63 | 188 | 3.5 | 4.3 | 0.00 | 0.01 | 0.01 | 62 | 1008.7 |
| 20260507183434 | 63 | 33 | 2.6 | 2.6 | 0.00 | 0.01 | 0.01 | 64 | 1008.8 |
| 20260507182931 | 63 | 124 | 0.9 | 2.6 | 0.00 | 0.01 | 0.01 | 62 | 1008.8 |
| 20260507182427 | 63 | 132 | 0.0 | 0.0 | 0.00 | 0.01 | 0.01 | 62 | 1009.0 |
| 20260507181923 | 63 | 176 | 1.7 | 2.6 | 0.00 | 0.01 | 0.01 | 61 | 1009.0 |
| 20260507181419 | 61 | 101 | 0.9 | 1.7 | 0.00 | 0.01 | 0.01 | 63 | 1009.0 |
| 20260507180916 | 60 | 37 | 0.9 | 1.7 | 0.00 | 0.01 | 0.01 | 63 | 1009.0 |
| 20260507180413 | 61 | 183 | 0.9 | 1.7 | 0.00 | 0.01 | 0.01 | 62 | 1009.2 |
| 20260507175909 | 62 | 183 | 3.5 | 4.3 | 0.00 | 0.01 | 0.01 | 64 | 1009.3 |
| 20260507175406 | 60 | 186 | 3.5 | 4.3 | 0.00 | 0.01 | 0.01 | 65 | 1009.3 |
| 20260507174903 | 60 | 248 | 4.3 | 5.2 | 0.00 | 0.01 | 0.01 | 63 | 1009.4 |
| 20260507174400 | 62 | 153 | 1.7 | 1.7 | 0.00 | 0.01 | 0.01 | 63 | 1009.3 |
| 20260507173858 | 61 | 119 | 0.0 | 0.0 | 0.00 | 0.01 | 0.01 | 62 | 1009.6 |
| 20260507173355 | 60 | 151 | 0.0 | 0.0 | 0.00 | 0.01 | 0.01 | 65 | 1009.4 |
| 20260507172851 | 59 | 183 | 1.7 | 1.7 | 0.00 | 0.01 | 0.01 | 64 | 1009.7 |
| 20260507172348 | 59 | 132 | 1.7 | 1.7 | 0.00 | 0.01 | 0.01 | 63 | 1009.7 |
| 20260507171844 | 59 | 201 | 1.7 | 2.6 | 0.00 | 0.01 | 0.01 | 65 | 1009.9 |
| 20260507171341 | 59 | 160 | 0.9 | 1.7 | 0.00 | 0.01 | 0.01 | 69 | 1010.0 |
| 20260507170838 | 58 | 174 | 0.9 | 0.9 | 0.00 | 0.01 | 0.01 | 69 | 1010.2 |
| 20260507170334 | 59 | 156 | 0.9 | 0.9 | 0.00 | 0.01 | 0.01 | 68 | 1010.2 |
| 20260507165830 | 58 | 183 | 2.6 | 2.6 | 0.00 | 0.01 | 0.01 | 68 | 1010.3 |
| 20260507165326 | 59 | 183 | 0.9 | 1.7 | 0.00 | 0.01 | 0.01 | 68 | 1010.3 |
| 20260507164822 | 59 | 187 | 0.9 | 2.6 | 0.00 | 0.01 | 0.01 | 68 | 1010.4 |
| 20260507164320 | 59 | 211 | 0.9 | 0.9 | 0.00 | 0.01 | 0.01 | 68 | 1010.4 |
| 20260507163817 | 57 | 136 | 0.0 | 0.9 | 0.00 | 0.01 | 0.01 | 71 | 1010.6 |
| 20260507163314 | 55 | 349 | 3.5 | 4.3 | 0.00 | 0.01 | 0.01 | 73 | 1010.6 |
| 20260507162810 | 56 | 100 | 1.7 | 1.7 | 0.00 | 0.01 | 0.01 | 75 | 1010.8 |
| 20260507162307 | 54 | 55 | 1.7 | 1.7 | 0.00 | 0.01 | 0.01 | 73 | 1010.8 |
| 20260507161804 | 55 | 32 | 0.9 | 0.9 | 0.00 | 0.01 | 0.01 | 74 | 1010.7 |
| 20260507161300 | 54 | 87 | 0.9 | 1.7 | 0.00 | 0.01 | 0.01 | 76 | 1011.2 |
| 20260507160756 | 54 | 295 | 0.9 | 0.9 | 0.00 | 0.01 | 0.01 | 74 | 1011.2 |
| 20260507160252 | 54 | 154 | 0.0 | 0.0 | 0.00 | 0.01 | 0.01 | 74 | 1011.6 |
| 20260507155748 | 53 | 274 | 1.7 | 1.7 | 0.00 | 0.01 | 0.01 | 75 | 1011.6 |
| 20260507155244 | 54 | 21 | 2.6 | 2.6 | 0.00 | 0.01 | 0.01 | 76 | 1011.5 |
| 20260507154741 | 53 | 165 | 0.0 | 0.9 | 0.00 | 0.01 | 0.01 | 76 | 1011.3 |
| 20260507154239 | 53 | 321 | 3.5 | 4.3 | 0.00 | 0.01 | 0.01 | 76 | 1011.3 |
| 20260507153735 | 53 | 3 | 2.6 | 2.6 | 0.00 | 0.01 | 0.01 | 76 | 1011.4 |
| 20260507153232 | 53 | 1 | 4.3 | 5.2 | 0.00 | 0.01 | 0.01 | 77 | 1011.4 |
| 20260507152728 | 53 | 318 | 0.9 | 1.7 | 0.00 | 0.01 | 0.01 | 79 | 1011.4 |
| 20260507152225 | 53 | 358 | 1.7 | 2.6 | 0.00 | 0.01 | 0.01 | 79 | 1011.3 |
| 20260507151721 | 53 | 18 | 2.6 | 2.6 | 0.00 | 0.01 | 0.01 | 78 | 1011.4 |
| 20260507151217 | 53 | 340 | 1.7 | 1.7 | 0.00 | 0.01 | 0.01 | 81 | 1011.4 |
| 20260507150714 | 53 | 7 | 3.5 | 4.3 | 0.00 | 0.01 | 0.01 | 79 | 1011.3 |
| 20260507150211 | 53 | 5 | 2.6 | 2.6 | 0.00 | 0.01 | 0.01 | 81 | 1011.5 |
| 20260507145707 | 52 | 324 | 3.5 | 4.3 | 0.00 | 0.01 | 0.01 | 81 | 1011.7 |
| 20260507145204 | 52 | 32 | 1.7 | 2.6 | 0.00 | 0.01 | 0.01 | 81 | 1011.6 |
| 20260507144700 | 52 | 10 | 2.6 | 2.6 | 0.00 | 0.01 | 0.01 | 82 | 1011.5 |
| 20260507144159 | 52 | 113 | 0.9 | 0.9 | 0.00 | 0.01 | 0.01 | 83 | 1011.9 |
| 20260507143655 | 51 | 106 | 0.9 | 0.9 | 0.00 | 0.01 | 0.01 | 84 | 1011.8 |
| 20260507143152 | 52 | 359 | 1.7 | 1.7 | 0.00 | 0.01 | 0.01 | 85 | 1011.8 |
| 20260507142647 | 52 | 347 | 3.5 | 4.3 | 0.00 | 0.01 | 0.01 | 85 | 1012.1 |
| 20260507142145 | 52 | 335 | 3.5 | 4.3 | 0.00 | 0.01 | 0.01 | 87 | 1012.0 |
| 20260507141641 | 52 | 74 | 0.9 | 0.9 | 0.00 | 0.01 | 0.01 | 87 | 1012.1 |
| 20260507141138 | 52 | 7 | 1.7 | 1.7 | 0.00 | 0.01 | 0.01 | 87 | 1012.0 |
| 20260507140634 | 52 | 2 | 4.3 | 5.2 | 0.00 | 0.01 | 0.01 | 87 | 1012.1 |
| 20260507140132 | 52 | 0 | 2.6 | 2.6 | 0.00 | 0.01 | 0.01 | 87 | 1012.3 |
| 20260507135628 | 52 | 214 | 2.6 | 2.6 | 0.00 | 0.01 | 0.01 | 87 | 1012.1 |
| 20260507135126 | 52 | 351 | 0.9 | 1.7 | 0.00 | 0.01 | 0.01 | 89 | 1012.0 |
| 20260507134622 | 52 | 276 | 3.5 | 4.3 | 0.00 | 0.01 | 0.01 | 88 | 1012.1 |
| 20260507134118 | 52 | 2 | 2.6 | 2.6 | 0.00 | 0.01 | 0.01 | 88 | 1011.9 |
| 20260507133614 | 52 | 336 | 3.5 | 4.3 | 0.00 | 0.01 | 0.01 | 87 | 1012.2 |
| 20260507133112 | 52 | 349 | 3.5 | 4.3 | 0.00 | 0.01 | 0.01 | 87 | 1012.1 |
| 20260507132609 | 52 | 294 | 3.5 | 6.1 | 0.00 | 0.01 | 0.01 | 89 | 1012.0 |
| 20260507132105 | 52 | 336 | 4.3 | 5.2 | 0.00 | 0.01 | 0.01 | 89 | 1012.0 |
| 20260507131602 | 52 | 3 | 3.5 | 4.3 | 0.00 | 0.01 | 0.01 | 91 | 1012.0 |
| 20260507131100 | 52 | 353 | 4.3 | 5.2 | 0.00 | 0.01 | 0.01 | 92 | 1012.2 |
| 20260507130556 | 52 | 336 | 3.5 | 4.3 | 0.00 | 0.01 | 0.01 | 92 | 1012.1 |
| 20260507130054 | 52 | 339 | 3.5 | 4.3 | 0.00 | 0.01 | 0.01 | 92 | 1012.4 |
| 20260507125553 | 52 | 358 | 2.6 | 2.6 | 0.00 | 0.01 | 0.01 | 92 | 1012.2 |
| 20260507125050 | 52 | 196 | 1.7 | 1.7 | 0.00 | 0.01 | 0.01 | 92 | 1012.1 |
| 20260507124546 | 52 | 333 | 1.7 | 1.7 | 0.00 | 0.01 | 0.01 | 92 | 1012.0 |
| 20260507124044 | 52 | 343 | 1.7 | 1.7 | 0.00 | 0.01 | 0.01 | 92 | 1012.2 |
| 20260507123542 | 52 | 76 | 0.9 | 0.9 | 0.00 | 0.01 | 0.01 | 92 | 1012.3 |
| 20260507123038 | 52 | 33 | 2.6 | 2.6 | 0.00 | 0.01 | 0.01 | 92 | 1012.3 |
| 20260507122533 | 52 | 130 | 0.0 | 0.0 | 0.00 | 0.01 | 0.01 | 93 | 1012.4 |
| 20260507122030 | 52 | 334 | 0.9 | 0.9 | 0.00 | 0.01 | 0.01 | 93 | 1012.0 |
| 20260507121525 | 52 | 342 | 1.7 | 1.7 | 0.00 | 0.01 | 0.01 | 93 | 1011.9 |
| 20260507121021 | 52 | 326 | 2.6 | 2.6 | 0.00 | 0.01 | 0.01 | 93 | 1011.8 |
| 20260507120518 | 52 | 148 | 0.9 | 0.9 | 0.00 | 0.01 | 0.01 | 94 | 1011.6 |
| 20260507120015 | 51 | 353 | 1.7 | 1.7 | 0.00 | 0.01 | 0.01 | 94 | 1011.6 |
| 20260507115511 | 51 | 17 | 1.7 | 1.7 | 0.00 | 0.01 | 0.01 | 94 | 1011.6 |
| 20260507115007 | 51 | 316 | 2.6 | 2.6 | 0.00 | 0.01 | 0.01 | 94 | 1011.7 |
| 20260507114503 | 51 | 349 | 1.7 | 1.7 | 0.00 | 0.01 | 0.01 | 94 | 1011.7 |
| 20260507114000 | 51 | 18 | 0.9 | 1.7 | 0.00 | 0.01 | 0.01 | 94 | 1011.7 |
| 20260507113458 | 51 | 13 | 1.7 | 1.7 | 0.00 | 0.01 | 0.01 | 94 | 1011.7 |
| 20260507112955 | 51 | 337 | 0.9 | 1.7 | 0.00 | 0.01 | 0.01 | 95 | 1011.8 |
| 20260507112452 | 51 | 354 | 0.9 | 1.7 | 0.00 | 0.01 | 0.01 | 94 | 1011.7 |
| 20260507111949 | 51 | 356 | 0.9 | 0.9 | 0.00 | 0.01 | 0.01 | 94 | 1011.5 |
| 20260507111446 | 51 | 351 | 1.7 | 1.7 | 0.00 | 0.01 | 0.01 | 94 | 1011.8 |
| 20260507110942 | 51 | 115 | 0.0 | 0.0 | 0.00 | 0.01 | 0.01 | 95 | 1011.5 |
| 20260507110439 | 51 | 32 | 0.9 | 0.9 | 0.00 | 0.01 | 0.01 | 95 | 1011.5 |
| 20260507105935 | 51 | 148 | 0.9 | 0.9 | 0.00 | 0.01 | 0.01 | 95 | 1011.5 |
| 20260507105432 | 51 | 317 | 0.9 | 1.7 | 0.00 | 0.01 | 0.01 | 95 | 1011.3 |
| 20260507104929 | 51 | 352 | 0.9 | 1.7 | 0.00 | 0.01 | 0.01 | 95 | 1011.2 |
| 20260507104426 | 51 | 340 | 1.7 | 1.7 | 0.00 | 0.01 | 0.01 | 95 | 1011.3 |
| 20260507103926 | 51 | 2 | 1.7 | 1.7 | 0.00 | 0.01 | 0.01 | 95 | 1011.1 |
| 20260507103424 | 51 | 74 | 0.9 | 0.9 | 0.00 | 0.01 | 0.01 | 95 | 1011.3 |
| 20260507102919 | 51 | 84 | 0.0 | 0.0 | 0.00 | 0.01 | 0.01 | 95 | 1011.3 |
| 20260507102417 | 51 | 121 | 0.0 | 0.0 | 0.00 | 0.01 | 0.01 | 95 | 1011.4 |
| 20260507101913 | 52 | 121 | 0.0 | 0.0 | 0.00 | 0.01 | 0.01 | 95 | 1011.5 |
| 20260507101408 | 51 | 111 | 0.0 | 0.0 | 0.00 | 0.01 | 0.01 | 94 | 1011.4 |
| 20260507100905 | 52 | 147 | 0.0 | 0.0 | 0.00 | 0.01 | 0.01 | 95 | 1011.4 |
| 20260507100402 | 51 | 119 | 0.0 | 0.0 | 0.00 | 0.01 | 0.01 | 94 | 1011.2 |
| 20260507095901 | 51 | 111 | 0.0 | 0.0 | 0.00 | 0.01 | 0.01 | 94 | 1011.3 |
| 20260507095357 | 52 | 27 | 1.7 | 1.7 | 0.00 | 0.01 | 0.01 | 94 | 1011.1 |
| 20260507094854 | 52 | 156 | 0.0 | 0.9 | 0.00 | 0.01 | 0.01 | 94 | 1011.4 |
| 20260507094351 | 52 | 165 | 0.0 | 0.0 | 0.00 | 0.01 | 0.01 | 94 | 1011.2 |
| 20260507093848 | 51 | 119 | 0.0 | 0.0 | 0.00 | 0.01 | 0.01 | 93 | 1010.8 |
| 20260507093346 | 51 | 117 | 0.0 | 0.0 | 0.00 | 0.01 | 0.01 | 93 | 1011.2 |
| 20260507092844 | 51 | 103 | 0.0 | 0.9 | 0.00 | 0.01 | 0.01 | 93 | 1010.7 |
| 20260507092340 | 51 | 121 | 0.0 | 0.0 | 0.00 | 0.01 | 0.01 | 92 | 1011.0 |
| 20260507091836 | 52 | 121 | 0.0 | 0.0 | 0.00 | 0.01 | 0.01 | 92 | 1011.0 |
| 20260507091333 | 52 | 125 | 0.0 | 0.0 | 0.00 | 0.01 | 0.01 | 92 | 1011.1 |
| 20260507090829 | 52 | 6 | 1.7 | 1.7 | 0.00 | 0.01 | 0.01 | 91 | 1010.8 |
| 20260507090325 | 52 | 295 | 1.7 | 1.7 | 0.00 | 0.01 | 0.01 | 91 | 1011.1 |
| 20260507085822 | 52 | 83 | 0.0 | 0.9 | 0.00 | 0.01 | 0.01 | 91 | 1010.8 |
| 20260507085319 | 52 | 35 | 2.6 | 2.6 | 0.00 | 0.01 | 0.01 | 91 | 1010.6 |
| 20260507084817 | 52 | 54 | 0.9 | 1.7 | 0.00 | 0.01 | 0.01 | 91 | 1010.8 |
| 20260507084313 | 52 | 337 | 2.6 | 2.6 | 0.00 | 0.01 | 0.01 | 92 | 1010.6 |
| 20260507083810 | 52 | 341 | 5.2 | 6.1 | 0.00 | 0.01 | 0.01 | 92 | 1010.5 |
| 20260507083306 | 52 | 3 | 3.5 | 4.3 | 0.00 | 0.01 | 0.01 | 93 | 1010.6 |
| 20260507082802 | 52 | 349 | 2.6 | 2.6 | 0.00 | 0.01 | 0.01 | 93 | 1010.4 |
| 20260507082258 | 52 | 37 | 1.7 | 1.7 | 0.00 | 0.01 | 0.01 | 93 | 1010.6 |
| 20260507081756 | 52 | 38 | 2.6 | 2.6 | 0.00 | 0.01 | 0.01 | 93 | 1010.6 |
| 20260507081251 | 52 | 295 | 2.6 | 2.6 | 0.00 | 0.01 | 0.01 | 94 | 1011.1 |
| 20260507080748 | 53 | 2 | 2.6 | 2.6 | 0.00 | 0.01 | 0.01 | 94 | 1011.1 |
| 20260507080244 | 53 | 332 | 2.6 | 2.6 | 0.00 | 0.01 | 0.01 | 94 | 1011.0 |
| 20260507075740 | 53 | 340 | 2.6 | 2.6 | 0.00 | 0.01 | 0.01 | 94 | 1010.7 |
| 20260507075236 | 53 | 15 | 2.6 | 4.3 | 0.00 | 0.01 | 0.01 | 94 | 1010.8 |
| 20260507074732 | 53 | 337 | 4.3 | 4.3 | 0.00 | 0.01 | 0.01 | 94 | 1011.0 |
| 20260507074231 | 53 | 337 | 4.3 | 5.2 | 0.00 | 0.01 | 0.01 | 94 | 1010.7 |
| 20260507073727 | 53 | 7 | 4.3 | 6.1 | 0.00 | 0.01 | 0.01 | 95 | 1010.6 |
| 20260507073224 | 53 | 335 | 2.6 | 2.6 | 0.00 | 0.01 | 0.01 | 95 | 1010.4 |
| 20260507072722 | 53 | 338 | 2.6 | 2.6 | 0.00 | 0.01 | 0.01 | 95 | 1010.6 |
| 20260507072219 | 53 | 10 | 3.5 | 4.3 | 0.00 | 0.01 | 0.01 | 95 | 1010.0 |
| 20260507071717 | 53 | 344 | 0.9 | 1.7 | 0.00 | 0.01 | 0.01 | 95 | 1010.1 |
| 20260507071213 | 54 | 335 | 1.7 | 1.7 | 0.00 | 0.01 | 0.01 | 95 | 1010.3 |
| 20260507070710 | 54 | 355 | 1.7 | 1.7 | 0.00 | 0.01 | 0.01 | 95 | 1010.3 |
| 20260507070207 | 54 | 31 | 0.9 | 1.7 | 0.00 | 0.01 | 0.01 | 95 | 1010.4 |
| 20260507065703 | 54 | 211 | 0.9 | 0.9 | 0.00 | 0.01 | 0.01 | 95 | 1010.0 |
| 20260507065200 | 54 | 338 | 0.9 | 1.7 | 0.00 | 0.01 | 0.01 | 95 | 1009.8 |
| 20260507064657 | 54 | 354 | 2.6 | 4.3 | 0.00 | 0.01 | 0.01 | 95 | 1010.0 |
| 20260507064155 | 54 | 61 | 1.7 | 1.7 | 0.00 | 0.01 | 0.01 | 95 | 1010.0 |
| 20260507063653 | 54 | 6 | 1.7 | 1.7 | 0.00 | 0.01 | 0.01 | 96 | 1010.4 |
| 20260507063150 | 54 | 256 | 1.7 | 1.7 | 0.00 | 0.01 | 0.01 | 96 | 1010.2 |
| 20260507062646 | 54 | 239 | 1.7 | 2.6 | 0.00 | 0.01 | 0.01 | 96 | 1010.4 |
| 20260507062144 | 54 | 29 | 0.9 | 1.7 | 0.00 | 0.01 | 0.01 | 97 | 1010.0 |
| 20260507061642 | 54 | 323 | 2.6 | 2.6 | 0.00 | 0.01 | 0.01 | 97 | 1009.8 |
| 20260507061140 | 55 | 346 | 2.6 | 2.6 | 0.00 | 0.01 | 0.01 | 97 | 1009.8 |
| 20260507060637 | 55 | 12 | 0.9 | 1.7 | 0.00 | 0.01 | 0.01 | 97 | 1010.1 |
| 20260507060133 | 55 | 81 | 0.9 | 0.9 | 0.00 | 0.01 | 0.01 | 97 | 1010.2 |
| 20260507055629 | 55 | 348 | 1.7 | 1.7 | 0.00 | 0.01 | 0.01 | 97 | 1010.2 |
| 20260507055125 | 55 | 115 | 1.7 | 1.7 | 0.00 | 0.01 | 0.01 | 97 | 1010.3 |
| 20260507054621 | 55 | 332 | 4.3 | 4.3 | 0.00 | 0.01 | 0.01 | 97 | 1010.2 |
| 20260507054119 | 55 | 355 | 5.2 | 6.1 | 0.00 | 0.01 | 0.01 | 97 | 1010.3 |
| 20260507053617 | 55 | 326 | 6.1 | 7.0 | 0.00 | 0.01 | 0.01 | 98 | 1010.4 |
| 20260507053115 | 55 | 332 | 9.6 | 9.6 | 0.00 | 0.01 | 0.01 | 98 | 1009.9 |
| 20260507052613 | 55 | 305 | 4.3 | 5.2 | 0.00 | 0.01 | 0.01 | 98 | 1010.0 |
| 20260507052109 | 55 | 348 | 6.1 | 7.8 | 0.00 | 0.01 | 0.01 | 98 | 1009.8 |
| 20260507051606 | 55 | 325 | 4.3 | 6.1 | 0.00 | 0.01 | 0.01 | 98 | 1010.0 |
| 20260507051103 | 55 | 340 | 6.1 | 7.0 | 0.00 | 0.01 | 0.01 | 98 | 1009.8 |
| 20260507050600 | 55 | 297 | 2.6 | 4.3 | 0.00 | 0.01 | 0.01 | 98 | 1009.9 |
| 20260507050056 | 56 | 337 | 5.2 | 6.1 | 0.00 | 0.01 | 0.01 | 98 | 1009.6 |
| 20260507045553 | 56 | 354 | 5.2 | 5.2 | 0.00 | 0.01 | 0.01 | 98 | 1009.3 |
| 20260507045050 | 56 | 329 | 4.3 | 4.3 | 0.00 | 0.01 | 0.01 | 98 | 1009.5 |
| 20260507044547 | 57 | 337 | 2.6 | 2.6 | 0.00 | 0.01 | 0.01 | 98 | 1009.2 |
| 20260507044044 | 58 | 318 | 2.6 | 2.6 | 0.00 | 0.01 | 0.01 | 98 | 1009.4 |
| 20260507043539 | 58 | 182 | 0.9 | 1.7 | 0.00 | 0.01 | 0.01 | 98 | 1009.0 |
| 20260507043037 | 58 | 143 | 0.9 | 1.7 | 0.00 | 0.01 | 0.01 | 98 | 1009.2 |
| 20260507042533 | 58 | 169 | 0.9 | 0.9 | 0.00 | 0.01 | 0.01 | 98 | 1009.3 |
| 20260507042028 | 58 | 133 | 0.0 | 0.0 | 0.00 | 0.01 | 0.01 | 98 | 1009.5 |
| 20260507041526 | 58 | 47 | 0.0 | 0.0 | 0.00 | 0.01 | 0.01 | 97 | 1009.6 |
| 20260507041022 | 58 | 24 | 2.6 | 2.6 | 0.07 | 0.01 | 0.01 | 97 | 1009.6 |
| 20260507040519 | 58 | 340 | 3.5 | 4.3 | 0.12 | 0.01 | 0.01 | 97 | 1009.9 |
| 20260507040015 | 58 | 299 | 5.2 | 6.1 | 0.54 | 0.00 | 0.00 | 97 | 1009.8 |
| 20260507035511 | 58 | 334 | 2.6 | 4.3 | 0.61 | 0.21 | 0.21 | 97 | 1010.4 |
| 20260507035008 | 59 | 240 | 5.2 | 7.0 | 0.17 | 0.13 | 0.13 | 97 | 1010.6 |
| 20260507034505 | 59 | 346 | 2.6 | 4.3 | 0.05 | 0.11 | 0.11 | 96 | 1010.0 |
| 20260507034003 | 60 | 197 | 2.6 | 2.6 | 0.00 | 0.10 | 0.10 | 96 | 1009.9 |
| 20260507033500 | 60 | 211 | 2.6 | 2.6 | 0.00 | 0.10 | 0.10 | 96 | 1010.0 |
| 20260507032957 | 60 | 103 | 0.0 | 0.0 | 0.00 | 0.10 | 0.10 | 96 | 1009.7 |
| 20260507032454 | 60 | 339 | 2.6 | 2.6 | 0.00 | 0.10 | 0.10 | 96 | 1009.9 |
| 20260507031950 | 61 | 223 | 1.7 | 2.6 | 0.07 | 0.10 | 0.10 | 96 | 1009.9 |
| 20260507031446 | 61 | 345 | 3.5 | 4.3 | 0.07 | 0.10 | 0.10 | 95 | 1010.0 |
| 20260507030944 | 61 | 16 | 3.5 | 4.3 | 0.00 | 0.09 | 0.09 | 95 | 1009.8 |
| 20260507030441 | 62 | 357 | 5.2 | 6.1 | 0.00 | 0.09 | 0.09 | 95 | 1009.8 |
| 20260507025938 | 62 | 38 | 4.3 | 6.1 | 0.00 | 0.09 | 0.09 | 95 | 1009.8 |
| 20260507025435 | 62 | 3 | 2.6 | 2.6 | 0.00 | 0.09 | 0.09 | 95 | 1009.6 |
| 20260507024933 | 62 | 212 | 1.7 | 1.7 | 0.00 | 0.09 | 0.09 | 94 | 1009.8 |
| 20260507024430 | 62 | 135 | 0.0 | 0.0 | 0.00 | 0.09 | 0.09 | 94 | 1009.5 |
| 20260507023926 | 62 | 132 | 0.0 | 0.0 | 0.00 | 0.09 | 0.09 | 94 | 1009.6 |
| 20260507023423 | 62 | 98 | 0.0 | 0.0 | 0.00 | 0.09 | 0.09 | 94 | 1009.4 |
| 20260507022920 | 62 | 46 | 1.7 | 1.7 | 0.00 | 0.09 | 0.09 | 94 | 1009.4 |
| 20260507022417 | 62 | 358 | 2.6 | 4.3 | 0.00 | 0.09 | 0.09 | 94 | 1009.0 |
| 20260507021912 | 62 | 7 | 4.3 | 5.2 | 0.00 | 0.09 | 0.09 | 94 | 1009.1 |
| 20260507021408 | 62 | 351 | 4.3 | 5.2 | 0.00 | 0.09 | 0.09 | 94 | 1009.1 |
| 20260507020906 | 62 | 351 | 5.2 | 7.0 | 0.00 | 0.09 | 0.09 | 93 | 1009.1 |
| 20260507020402 | 63 | 334 | 4.3 | 6.1 | 0.00 | 0.09 | 0.09 | 93 | 1009.0 |
| 20260507015859 | 63 | 21 | 2.6 | 2.6 | 0.00 | 0.09 | 0.09 | 91 | 1008.8 |
| 20260507015357 | 63 | 316 | 4.3 | 5.2 | 0.00 | 0.09 | 0.09 | 89 | 1009.0 |
| 20260507014854 | 63 | 292 | 1.7 | 1.7 | 0.00 | 0.09 | 0.09 | 87 | 1009.0 |
| 20260507014350 | 63 | 342 | 3.5 | 4.3 | 0.00 | 0.09 | 0.09 | 88 | 1008.9 |
| 20260507013847 | 63 | 276 | 0.9 | 0.9 | 0.00 | 0.09 | 0.09 | 88 | 1009.0 |
| 20260507013344 | 64 | 178 | 0.9 | 0.9 | 0.00 | 0.09 | 0.09 | 88 | 1008.6 |
| 20260507012841 | 64 | 357 | 2.6 | 2.6 | 0.00 | 0.09 | 0.09 | 87 | 1008.6 |
| 20260507012337 | 64 | 0 | 1.7 | 1.7 | 0.00 | 0.09 | 0.09 | 87 | 1008.6 |
| 20260507011835 | 64 | 28 | 2.6 | 2.6 | 0.00 | 0.09 | 0.09 | 87 | 1008.9 |
| 20260507011332 | 64 | 0 | 5.2 | 6.1 | 0.00 | 0.09 | 0.09 | 87 | 1008.9 |
| 20260507010831 | 64 | 322 | 5.2 | 6.1 | 0.00 | 0.09 | 0.09 | 89 | 1008.9 |
| 20260507010327 | 64 | 0 | 4.3 | 5.2 | 0.00 | 0.09 | 0.09 | 89 | 1009.0 |
| 20260507005825 | 65 | 350 | 4.3 | 5.2 | 0.00 | 0.09 | 0.09 | 91 | 1008.9 |
| 20260507005321 | 64 | 330 | 2.6 | 2.6 | 0.00 | 0.09 | 0.09 | 92 | 1008.9 |
| 20260507004818 | 64 | 350 | 4.3 | 5.2 | 0.00 | 0.09 | 0.09 | 92 | 1009.1 |
| 20260507004315 | 65 | 342 | 4.3 | 5.2 | 0.00 | 0.09 | 0.09 | 91 | 1009.3 |
| 20260507003812 | 65 | 15 | 4.3 | 5.2 | 0.00 | 0.09 | 0.09 | 91 | 1009.1 |
| 20260507003307 | 65 | 334 | 4.3 | 5.2 | 0.00 | 0.09 | 0.09 | 91 | 1009.1 |
| 20260507002803 | 65 | 337 | 5.2 | 5.2 | 0.00 | 0.09 | 0.09 | 90 | 1009.1 |
| 20260507002259 | 66 | 19 | 5.2 | 6.1 | 0.00 | 0.09 | 0.09 | 88 | 1008.7 |
| 20260507001756 | 67 | 338 | 3.5 | 5.2 | 0.00 | 0.09 | 0.09 | 88 | 1008.9 |
| 20260507001254 | 68 | 1 | 7.0 | 8.7 | 0.00 | 0.09 | 0.09 | 87 | 1008.8 |
| 20260507000750 | 69 | 19 | 4.3 | 6.1 | 0.00 | 0.09 | 0.09 | 81 | 1008.7 |
| 20260507000246 | 70 | 143 | 0.0 | 0.0 | 0.00 | 0.09 | 0.09 | 79 | 1008.3 |
| 20260506235743 | 70 | 163 | 0.9 | 0.9 | 0.00 | 0.09 | 0.09 | 77 | 1008.2 |
| 20260506235238 | 70 | 82 | 0.9 | 0.9 | 0.00 | 0.09 | 0.09 | 78 | 1008.3 |
| 20260506234735 | 70 | 146 | 0.9 | 0.9 | 0.00 | 0.09 | 0.09 | 77 | 1007.9 |
| 20260506234232 | 70 | 109 | 0.9 | 0.9 | 0.00 | 0.09 | 0.09 | 76 | 1007.7 |
| 20260506233730 | 71 | 195 | 0.0 | 0.9 | 0.00 | 0.09 | 0.09 | 77 | 1007.9 |
| 20260506233226 | 71 | 184 | 1.7 | 2.6 | 0.00 | 0.09 | 0.09 | 76 | 1008.1 |
| 20260506232723 | 71 | 89 | 0.9 | 0.9 | 0.00 | 0.09 | 0.09 | 75 | 1007.9 |
| 20260506232218 | 71 | 217 | 3.5 | 4.3 | 0.00 | 0.09 | 0.09 | 75 | 1007.9 |
| 20260506231715 | 72 | 160 | 3.5 | 5.2 | 0.00 | 0.09 | 0.09 | 74 | 1008.0 |
| 20260506231214 | 72 | 143 | 3.5 | 5.2 | 0.00 | 0.09 | 0.09 | 73 | 1008.0 |
| 20260506230710 | 72 | 108 | 2.6 | 4.3 | 0.00 | 0.09 | 0.09 | 73 | 1007.7 |
| 20260506230207 | 72 | 170 | 3.5 | 4.3 | 0.00 | 0.09 | 0.09 | 73 | 1007.6 |
| 20260506225703 | 72 | 156 | 3.5 | 4.3 | 0.00 | 0.09 | 0.09 | 73 | 1007.9 |
| 20260506225200 | 72 | 154 | 1.7 | 1.7 | 0.00 | 0.09 | 0.09 | 73 | 1007.5 |
| 20260506224657 | 72 | 166 | 2.6 | 5.2 | 0.00 | 0.09 | 0.09 | 72 | 1007.5 |
| 20260506224154 | 72 | 181 | 1.7 | 2.6 | 0.00 | 0.09 | 0.09 | 72 | 1007.5 |
| 20260506223650 | 73 | 196 | 6.1 | 7.8 | 0.00 | 0.09 | 0.09 | 71 | 1007.5 |
| 20260506223146 | 73 | 150 | 7.0 | 8.7 | 0.00 | 0.09 | 0.09 | 71 | 1007.5 |
| 20260506222643 | 73 | 172 | 7.0 | 9.6 | 0.00 | 0.09 | 0.09 | 71 | 1007.6 |
| 20260506222139 | 73 | 182 | 4.3 | 6.1 | 0.00 | 0.09 | 0.09 | 71 | 1007.5 |
| 20260506221637 | 73 | 86 | 4.3 | 6.1 | 0.00 | 0.09 | 0.09 | 71 | 1007.6 |
| 20260506221135 | 73 | 164 | 4.3 | 7.0 | 0.00 | 0.09 | 0.09 | 70 | 1007.6 |
| 20260506220631 | 74 | 183 | 5.2 | 7.0 | 0.00 | 0.09 | 0.09 | 70 | 1007.4 |
| 20260506220126 | 74 | 156 | 4.3 | 5.2 | 0.00 | 0.09 | 0.09 | 68 | 1007.3 |
| 20260506215623 | 74 | 176 | 6.1 | 7.0 | 0.00 | 0.09 | 0.09 | 69 | 1007.5 |
| 20260506215119 | 73 | 183 | 5.2 | 7.0 | 0.00 | 0.09 | 0.09 | 69 | 1007.9 |
| 20260506214616 | 73 | 192 | 7.0 | 8.7 | 0.00 | 0.09 | 0.09 | 69 | 1007.6 |
| 20260506214113 | 74 | 174 | 6.1 | 7.0 | 0.00 | 0.09 | 0.09 | 69 | 1007.3 |
| 20260506213611 | 74 | 150 | 3.5 | 5.2 | 0.00 | 0.09 | 0.09 | 69 | 1007.4 |
| 20260506213108 | 74 | 141 | 2.6 | 2.6 | 0.00 | 0.09 | 0.09 | 70 | 1007.3 |
| 20260506212605 | 74 | 132 | 2.6 | 2.6 | 0.00 | 0.09 | 0.09 | 69 | 1007.4 |
| 20260506212100 | 74 | 136 | 1.7 | 1.7 | 0.00 | 0.09 | 0.09 | 70 | 1007.3 |
| 20260506211556 | 74 | 162 | 3.5 | 5.2 | 0.00 | 0.09 | 0.09 | 69 | 1007.3 |
| 20260506211053 | 73 | 181 | 6.1 | 7.0 | 0.00 | 0.09 | 0.09 | 69 | 1007.4 |
| 20260506210550 | 73 | 158 | 5.2 | 7.0 | 0.00 | 0.09 | 0.09 | 69 | 1007.2 |
| 20260506210046 | 73 | 180 | 5.2 | 6.1 | 0.00 | 0.09 | 0.09 | 69 | 1007.3 |
| 20260506205543 | 73 | 175 | 2.6 | 2.6 | 0.00 | 0.09 | 0.09 | 70 | 1007.3 |
| 20260506205038 | 73 | 174 | 1.7 | 2.6 | 0.00 | 0.09 | 0.09 | 70 | 1007.2 |
| 20260506204537 | 73 | 125 | 4.3 | 6.1 | 0.00 | 0.09 | 0.09 | 70 | 1007.2 |
| 20260506204033 | 73 | 230 | 3.5 | 5.2 | 0.00 | 0.09 | 0.09 | 70 | 1007.1 |
| 20260506203532 | 73 | 159 | 4.3 | 7.0 | 0.00 | 0.09 | 0.09 | 70 | 1007.0 |